Regional Weather Roundup
Issued by NWS Sterling, VA

Home | Current Version | Previous Version | Graphics & Text | Print | Product List | Glossary On
Versions: 1 2 3 4 5 6 7 8 9 10 11 12 13 14 15 16 17 18 19 20 21 22 23 24 25 26 27 28 29 30 31 32 33 34 35 36 37 38 39 40 41 42 43 44 45 46 47 48 49 50
000
ASUS41 KLWX 310910
RWRLWX

REGIONAL WEATHER ROUNDUP
NATIONAL WEATHER SERVICE BALTIMORE MD/WASHINGTON DC
400 AM EST SAT JAN 31 2015

Note: "FAIR" indicates few or no clouds below 12,000 feet
with no significant weather and/or obstructions to visibility.
 TC=TEMPERATURE CELSIUS

 * =Non NWS site. Station does not report precipitation (e.g. rain,
    snow, etc.), thunder, or fog.

DCZ001-MDZ009-015-VAZ040>042-051-053>054-311000-
WASHINGTON METRO

CITY           SKY/WX    TMP DP  RH WIND       PRES   REMARKS
WASHINGTON NAT CLEAR     21   3  45 NW16G23   30.31S WCI   7
DULLES         CLEAR     18   3  52 NW17G23   30.29F WCI   3
ANDREWS AFB    CLEAR     18   3  51 NW18G25   30.27R WCI   3
FT BELVOIR     CLEAR     19   3  48 NW13      30.31S WCI   7
QUANTICO       CLEAR     20   4  50 N9        30.33S WCI   9
COLLEGE PARK*  CLEAR     21   7  53 NW6G16    30.29S
LEESBURG*      CLEAR     19   9  63 N10G22    30.30F WCI   8
MANASSAS*      CLEAR     19   9  63 NW17G24   30.30S WCI   4
GAITHERSBURG*  CLEAR     16   3  57 NW12G18   30.29S WCI   3

$$

MDZ006>007-011-014-311000-
BALTIMORE METRO

CITY           SKY/WX    TMP DP  RH WIND       PRES   REMARKS
BWI AIRPORT    CLEAR     18   3  52 NW13G22   30.26S WCI   5
MD SCIENCE CTR   N/A     19   0  43 MISG      30.27S
MARTIN STATE   CLEAR     19   3  49 W18G26    30.28R WCI   4
ANNAPOLIS      CLEAR     21   7  54 NW14G26   30.26S WCI   8

$$

MDZ012-015-019>023-311000-
MARYLAND EASTERN SHORE

CITY           SKY/WX    TMP DP  RH WIND       PRES   REMARKS
OCEAN CITY     CLEAR     20   3  48 NW18G28   30.19R WCI   5
SALISBURY      CLEAR     22   3  44 NW20G31   30.21S WCI   7
BAY BRIDGE AP*   N/A     21   3  45 NW24G30   30.27S WCI   4
CAMBRIDGE*     CLEAR     23   3  42 NW16G28   30.24S WCI  10
EASTON*        CLEAR     22   6  51 N20       30.27  WCI   7

$$

MDZ017>025-311000-
SOUTHERN MARYLAND

CITY           SKY/WX    TMP DP  RH WIND       PRES   REMARKS
PATUXENT RIVER CLEAR     21   4  47 NW29G38   30.26S WCI   3
ST INIGOES     CLEAR     20   4  50 NW10G21   30.27R WCI   9
LEONARDTOWN*   CLEAR     19   3  49 W10G16    30.29S WCI   8

$$

MDZ003>005-311000-
NORTH CENTRAL MARYLAND

CITY           SKY/WX    TMP DP  RH WIND       PRES   REMARKS
FREDERICK*     CLEAR     19   3  49 NW8       30.32S WCI   9
HAGERSTOWN APT CLOUDY    16   3  56 NW9       30.28S WCI   4
WESTMINSTER*   PTCLDY    14   1  57 NW14G20   30.22S WCI  -1

$$

MDZ501>502-311000-
WESTERN MARYLAND

CITY           SKY/WX    TMP DP  RH WIND       PRES   REMARKS
OAKLAND*       CLEAR      3 N/A N/A W12G17    30.15F WCI -13
CUMBERLAND*    CLEAR     18   3  53 W12G22    30.36F WCI   5

$$

VAZ025>031-311000-
SHENANDOAH VALLEY

CITY           SKY/WX    TMP DP  RH WIND       PRES   REMARKS
WINCHESTER*    CLEAR     19   1  45 W7        30.29F
FRONT ROYAL*   FAIR      21   3  45 CALM      30.28S
LURAY*         FAIR      23   5  46 NW5       30.27S
NEW MARKET*    FAIR      16   5  62 CALM      30.27F
STAUNTON*      CLEAR     15   7  71 CALM      30.27S
WAYNESBORO*    FAIR      20   0  40 W8        30.23S WCI  11

$$

WVZ021-048>050-054>055-311000-
EASTERN WEST VIRGINIA PANHANDLE

CITY           SKY/WX    TMP DP  RH WIND       PRES   REMARKS
MARTINSBURG    CLEAR     17   2  51 NW15      30.30F WCI   2
PETERSBURG*    CLEAR     18  -1  43 CALM      30.32F

$$

VAZ036>039-050-311000-
CENTRAL FOOTHILLS

CITY           SKY/WX    TMP DP  RH WIND       PRES   REMARKS
CHARLOTTESVILL CLEAR     22   2  42 CALM      30.26F
CULPEPER*      CLEAR     19   7  58 N3        30.28F
ORANGE*        CLEAR     16  12  86 CALM      30.29F
GORDONSVILLE*  FAIR      16   7  66 CALM      30.27S
WARRENTON*     FAIR      21  10  62 NW12G18   30.28F WCI   9

$$

VAZ055>057-311000-
NORTH AND CENTRAL PIEDMONT

CITY           SKY/WX    TMP DP  RH WIND       PRES   REMARKS
FREDERICKSBRG* CLEAR     21   7  53 N6        30.30S
STAFFORD*      CLEAR     19   3  50 CALM      30.34F

$$

NCZ024-NYZ072-PAZ021-071-VAZ022-071-311000-
OTHER REGIONAL OBSERVATIONS

CITY           SKY/WX    TMP DP  RH WIND       PRES   REMARKS
NEW YORK CITY  CLEAR     16   1  51 NW14G30   30.09S WCI   2
PHILADELPHIA   CLEAR     16  -3  43 NW22G30   30.21R WCI  -2
PITTSBURGH     PTCLDY     5   1  83 CALM      30.34F
ROANOKE        CLEAR     25   3  38 NW15      30.29S WCI  13
RICHMOND       CLEAR     21   8  57 N6        30.29S
RALEIGH        CLEAR     27   8  44 CALM      30.32S

$$

ANZ530>537-311000-
MARINE OBSERVATIONS

STATION/POSITION TIME  TEMP    WIND        PRES
                       AIR SEA DIR/SP/G
                 (UTC) (F)     (DEG/KT/KT) (MB)
THOMAS PT LIGHT  0900   20 34  330/ 19/ 23 1025.5F
BALT KEY BRIDGE  0900   20     300/ 20/ 24 1024.8F
COVE POINT       0900   20     340/ 23/ 31 1024.5R
LEWISETTA        0900   22 34  340/ 19/ 25 1025.2R
SOLOMONS ISLAND  0900      36                N/A
PINEY POINT      0900          340/ 26/ 31   N/A

$$



USA.gov is the U.S. government's official web portal to all federal, state and local government web resources and services.